Date,TemperatureHighF,TemperatureAvgF,TemperatureLowF,DewpointHighF,DewpointAvgF,DewpointLowF,HumidityHigh,HumidityAvg,HumidityLow,PressureMaxIn,PressureMinIn,WindSpeedMaxMPH,WindSpeedAvgMPH,GustSpeedMaxMPH,PrecipitationSumIn
2013-1-1,48,36,25,22,13,6,78,43,19,30.34,30.26,11,4,15,0.00
2013-1-2,54,37,23,11,7,4,51,31,13,30.33,30.19,9,3,11,0.00
2013-1-3,56,38,25,12,7,2,45,29,13,30.35,30.22,7,3,9,0.02
2013-1-4,54,37,23,8,4,0,42,27,11,30.39,30.27,8,3,10,0.00
2013-1-5,53,38,24,10,3,-1,41,24,12,30.39,30.19,9,3,11,0.00
2013-1-6,49,42,32,32,23,1,69,48,21,30.19,30.00,22,7,27,0.00
2013-1-7,61,46,32,27,15,8,64,32,13,30.16,30.03,27,5,34,0.00
2013-1-8,65,47,34,29,22,12,54,39,23,30.24,30.11,9,3,10,0.00
2013-1-9,60,47,35,38,26,21,64,44,30,30.24,29.87,29,3,36,0.00
2013-1-10,49,41,34,38,21,9,68,46,24,30.02,29.80,36,18,47,0.00
2013-1-11,44,37,28,17,14,9,57,40,25,30.13,30.00,25,12,33,0.00
2013-1-12,42,31,18,19,12,6,65,46,26,30.22,30.09,11,2,15,0.00
2013-1-13,42,28,14,10,4,-4,61,38,20,30.29,30.10,14,3,19,0.00
2013-1-14,39,25,12,-1,-6,-12,44,26,14,30.51,30.30,8,2,16,0.00
2013-1-15,49,32,18,5,-3,-10,36,24,13,30.63,30.49,9,2,11,0.00
2013-1-16,56,38,23,16,10,1,54,32,19,30.55,30.38,8,3,10,0.00
2013-1-17,64,43,26,9,4,-3,42,22,7,30.42,30.27,12,4,14,0.00
2013-1-18,63,44,28,3,-1,-4,29,17,7,30.35,30.21,13,4,14,0.00
2013-1-19,64,45,29,2,-4,-9,25,14,5,30.37,30.23,11,4,15,0.00
2013-1-20,66,46,30,0,-5,-10,21,12,5,30.30,30.16,17,5,21,0.00
2013-1-21,68,49,36,1,-5,-14,20,11,3,30.26,30.14,11,4,14,0.00
2013-1-22,69,50,31,3,-1,-6,23,13,5,30.23,30.11,14,4,15,0.00
2013-1-23,62,52,39,17,6,0,22,16,10,30.17,30.07,9,2,15,0.00
2013-1-24,55,52,48,48,42,16,86,72,22,30.21,30.08,15,3,21,0.13
2013-1-25,58,53,50,48,46,44,90,78,61,30.21,29.99,11,4,13,0.07
2013-1-26,60,53,48,51,46,39,92,76,55,29.99,29.80,26,6,32,0.02
2013-1-27,51,45,42,39,30,21,80,55,42,29.97,29.85,35,14,41,0.00
2013-1-28,49,43,35,26,22,15,65,45,26,30.16,29.97,23,10,29,0.00
2013-1-29,58,45,32,32,28,22,71,53,34,30.27,30.07,20,8,26,0.00
2013-1-30,62,46,32,32,28,25,77,52,27,30.39,30.25,10,3,13,0.00
2013-1-31,66,50,37,30,28,26,67,45,23,30.31,30.16,11,4,13,0.00
2013-2-1,66,50,34,31,28,24,69,44,24,30.25,30.15,9,3,12,0.00
2013-2-2,66,56,44,36,27,22,52,35,20,30.29,30.17,11,2,15,0.00
2013-2-3,67,56,43,40,34,27,70,47,27,30.18,29.97,12,4,14,0.00
2013-2-4,69,53,39,29,23,18,60,35,14,30.12,29.98,10,4,13,0.00
2013-2-5,70,52,34,38,28,22,63,41,17,30.03,29.85,20,6,23,0.00
2013-2-6,65,53,40,37,28,19,65,41,18,30.06,29.87,23,6,26,0.00
2013-2-7,66,44,29,32,23,14,64,46,14,30.08,29.87,28,7,34,0.00
2013-2-8,46,42,35,31,25,19,72,51,41,29.88,29.75,27,12,32,0.00
2013-2-9,51,43,30,27,22,16,65,44,27,30.04,29.85,24,8,27,0.00
2013-2-10,54,39,23,23,18,12,70,45,20,30.08,29.96,21,4,23,0.00
2013-2-11,54,41,28,16,5,-5,51,26,9,30.28,30.08,26,6,32,0.00
2013-2-12,30,27,24,5,3,1,41,35,29,30.34,30.28,6,2,7,0.00
2013-2-13,62,44,28,16,11,8,51,28,13,30.34,30.17,10,4,12,0.00
2013-2-14,68,51,36,22,17,8,43,28,14,30.26,30.14,16,5,21,0.00
2013-2-15,70,53,38,23,15,5,45,25,9,30.32,30.23,18,5,23,0.00
2013-2-16,70,53,39,13,7,1,30,18,7,30.31,29.99,12,4,15,0.00
2013-2-17,70,54,35,31,16,-2,40,25,6,29.99,29.81,23,6,27,0.00
2013-2-18,65,50,32,34,24,9,63,39,11,29.99,29.81,23,6,26,0.00
2013-2-19,49,44,35,34,29,19,78,56,33,29.83,29.57,31,12,42,0.01
2013-2-20,52,42,36,27,20,16,55,42,29,29.94,29.55,32,16,43,0.00
2013-2-21,54,43,30,29,20,9,64,43,17,30.10,29.93,22,6,26,0.00
2013-2-22,58,44,26,30,21,10,69,43,16,30.22,30.10,15,4,21,0.00
2013-2-23,61,50,39,29,25,10,57,39,21,30.13,29.82,37,12,48,0.00
2013-2-24,57,46,32,10,-1,-16,24,15,5,30.25,30.06,36,12,43,0.00
2013-2-25,61,45,26,22,4,-8,29,20,9,30.27,30.01,24,5,27,0.00
2013-2-26,62,50,36,23,10,-1,49,23,9,30.21,30.04,19,4,36,0.00
2013-2-27,62,46,29,6,1,-4,29,17,8,30.38,30.20,11,4,17,0.00
2013-2-28,68,49,32,13,3,-4,35,17,6,30.43,30.33,9,3,12,0.00
2013-3-1,74,57,37,19,12,6,42,20,9,30.42,30.23,16,5,20,0.00
2013-3-2,74,60,42,29,18,13,34,21,11,30.29,30.02,17,5,19,0.00
2013-3-3,68,61,52,35,28,19,41,30,21,30.02,29.82,32,14,37,0.00
2013-3-4,71,59,45,38,29,20,53,34,15,30.00,29.85,19,6,33,0.00
2013-3-5,69,55,38,35,24,9,58,34,11,30.02,29.85,25,8,32,0.00
2013-3-6,60,51,38,36,32,26,70,50,32,29.96,29.88,29,11,41,0.00
2013-3-7,56,48,39,35,31,25,67,53,30,29.90,29.80,25,9,30,0.00
2013-3-8,49,42,34,36,32,27,88,68,50,29.93,29.70,28,6,34,0.53
2013-3-9,58,48,40,36,32,28,69,53,39,30.23,29.92,22,10,28,0.00
2013-3-10,67,54,36,31,15,2,57,25,8,30.33,30.17,21,6,29,0.00
2013-3-11,72,54,37,29,20,3,63,33,7,30.22,30.03,9,3,11,0.00
2013-3-12,78,60,40,26,18,5,54,26,6,30.14,30.01,13,4,17,0.00
2013-3-13,82,63,43,25,20,13,47,23,8,30.17,30.03,10,3,18,0.00
2013-3-14,84,68,47,46,28,16,46,26,8,30.11,29.95,16,4,21,0.00
2013-3-15,85,70,55,46,39,10,58,35,6,29.97,29.75,36,12,45,0.00
2013-3-16,82,70,58,43,33,-8,40,27,2,29.82,29.72,32,12,38,0.00
2013-3-17,80,65,57,37,25,-17,41,25,2,29.88,29.76,37,14,41,0.00
2013-3-18,74,64,47,33,23,9,42,23,9,29.96,29.81,31,9,40,0.00
2013-3-19,77,67,55,34,24,9,33,20,12,29.95,29.83,36,13,45,0.00
2013-3-20,73,64,56,39,34,23,49,34,16,29.95,29.81,30,13,38,0.00
2013-3-21,71,61,54,41,33,15,58,35,12,29.86,29.63,42,17,50,0.00
2013-3-22,72,60,51,35,25,-4,53,30,5,29.84,29.70,33,12,40,0.00
2013-3-23,69,57,44,30,18,-2,54,26,6,30.02,29.84,19,6,24,0.00
2013-3-24,73,59,43,30,12,-9,35,19,4,30.03,29.84,17,4,22,0.00
2013-3-25,75,60,44,29,24,16,44,28,11,29.94,29.78,18,5,26,0.00
2013-3-26,75,61,45,34,27,18,40,28,14,29.85,29.75,22,7,28,0.00
2013-3-27,73,64,54,36,33,27,44,32,21,29.88,29.74,27,12,34,0.00
2013-3-28,73,63,54,41,36,22,59,39,18,29.97,29.86,24,10,29,0.00
2013-3-29,78,64,45,41,32,13,58,34,9,30.05,29.92,16,4,18,0.00
2013-3-30,79,66,54,38,31,24,45,30,14,29.99,29.85,19,5,25,0.00
2013-3-31,70,60,46,44,39,33,66,48,28,29.94,29.87,23,9,27,0.00
2013-4-1,68,58,46,39,33,25,66,41,21,29.99,29.86,42,13,43,0.00
2013-4-2,74,62,53,43,35,26,52,38,18,30.02,29.89,22,7,25,0.00
2013-4-3,80,65,45,38,31,17,66,33,10,30.04,29.90,14,4,19,0.00
2013-4-4,74,64,51,44,38,30,51,39,24,29.96,29.86,25,9,33,0.00
2013-4-5,70,63,54,45,38,32,55,41,25,29.91,29.82,37,15,47,0.00
2013-4-6,73,63,56,42,35,25,50,36,20,29.95,29.79,42,15,49,0.00
2013-4-7,73,64,60,42,36,29,45,35,23,29.85,29.65,39,17,47,0.00
2013-4-8,60,53,46,40,29,21,58,40,27,29.77,29.51,46,19,53,0.00
2013-4-9,57,46,40,30,26,8,59,48,14,29.93,29.77,22,4,31,0.00
2013-4-10,78,71,64,25,14,0,21,13,5,30.06,29.89,21,10,26,0.00
2013-4-11,81,69,60,40,29,13,42,24,8,29.89,29.59,29,12,40,0.00
2013-4-12,83,69,50,44,36,25,59,34,13,29.76,29.64,22,7,23,0.00
2013-4-13,80,71,59,41,35,26,49,28,18,29.71,29.52,26,10,37,0.00
2013-4-14,81,69,60,40,32,23,40,26,12,29.58,29.47,35,12,43,0.00
2013-4-15,64,58,52,37,30,14,51,36,16,29.63,29.54,35,15,43,0.00
2013-4-16,60,51,41,29,19,6,51,30,13,29.96,29.63,32,14,40,0.00
2013-4-17,65,52,36,20,11,-2,43,22,7,30.18,29.96,23,6,29,0.00
2013-4-18,69,56,37,10,2,-10,28,13,4,30.27,30.14,14,5,20,0.00
2013-4-19,78,61,38,26,10,-9,31,16,3,30.21,29.91,24,6,30,0.00
2013-4-20,84,72,62,37,25,5,31,20,5,29.95,29.81,28,8,29,0.00
2013-4-21,87,72,51,36,29,14,39,22,7,29.91,29.75,26,9,29,0.00
2013-4-22,87,76,60,32,26,15,28,17,10,29.80,29.62,27,10,36,0.00
2013-4-23,79,70,55,31,12,1,26,12,5,29.88,29.63,25,8,34,0.00
2013-4-24,79,67,51,32,12,-6,39,16,3,29.83,29.70,22,6,26,0.00
2013-4-25,81,64,43,42,34,14,66,37,9,29.91,29.75,27,9,36,0.00
2013-4-26,86,72,55,43,31,2,52,27,4,30.03,29.91,19,7,27,0.00
2013-4-27,90,76,57,40,30,4,46,23,4,30.04,29.86,21,7,25,0.00
2013-4-28,93,80,68,40,32,10,36,19,5,29.86,29.68,26,10,32,0.00
2013-4-29,92,80,65,42,34,17,36,21,7,29.71,29.53,23,8,32,0.00
2013-4-30,88,79,71,42,36,18,32,22,8,29.58,29.47,34,14,37,0.00
2013-5-1,81,71,61,41,6,-100,35,13,1,30.05,29.58,31,13,38,0.00
2013-5-2,81,66,46,-9,-19,-39,8,3,1,30.24,30.06,25,6,26,0.00
2013-5-3,86,70,45,24,-9,-33,15,5,1,30.08,29.70,16,5,23,0.00
2013-5-4,88,75,60,35,24,-5,30,17,2,29.70,29.45,25,6,31,0.00
2013-5-5,66,59,49,40,35,25,55,42,24,29.79,29.55,29,9,35,0.00
2013-5-6,65,56,46,49,41,36,87,59,37,29.90,29.79,25,8,31,0.02
2013-5-7,68,58,47,42,39,35,69,49,31,29.90,29.84,27,10,35,0.00
2013-5-8,72,63,50,45,40,34,63,44,25,29.96,29.88,23,7,27,0.00
2013-5-9,78,65,56,53,44,38,77,48,25,29.98,29.89,26,6,43,0.03
2013-5-10,88,72,52,51,43,26,76,42,11,30.03,29.91,21,6,27,0.00
2013-5-11,92,79,59,44,35,19,49,24,7,30.00,29.89,17,4,22,0.00
2013-5-12,95,83,67,46,37,19,37,22,7,29.98,29.81,20,6,26,0.00
2013-5-13,96,85,68,46,37,24,38,20,8,29.88,29.75,22,8,28,0.00
2013-5-14,91,77,60,39,28,-24,35,19,1,29.79,29.68,29,10,37,0.00
2013-5-15,91,81,70,43,28,5,36,17,4,29.77,29.65,37,14,43,0.00
2013-5-16,79,71,62,41,36,28,46,29,16,29.73,29.62,34,14,41,0.00
2013-5-17,75,67,59,44,39,34,56,37,24,29.78,29.68,31,15,43,0.00
2013-5-18,65,65,64,35,32,31,33,30,29,29.81,29.77,22,12,36,0.00
2013-5-20,86,81,67,32,20,12,23,11,7,29.94,29.79,19,6,21,0.00
2013-5-21,88,75,59,33,23,7,26,16,6,29.83,29.63,31,9,36,0.00
2013-5-22,73,65,57,36,31,22,39,28,20,29.67,29.53,46,14,48,0.00
2013-5-23,74,64,53,25,19,4,25,18,9,29.77,29.66,30,13,37,0.00
2013-5-24,83,67,50,33,22,-2,36,21,4,29.84,29.72,25,8,29,0.00
2013-5-25,82,70,59,31,27,19,32,20,13,29.78,29.72,27,12,34,0.00
2013-5-26,79,70,59,39,33,21,38,27,16,29.80,29.75,32,15,39,0.00
2013-5-27,80,71,64,42,36,30,36,28,18,29.80,29.67,29,13,39,0.00
2013-5-28,81,70,57,46,41,34,60,35,22,29.70,29.55,37,18,50,0.00
2013-5-29,81,73,62,46,41,29,49,33,15,29.68,29.54,40,16,46,0.00
2013-5-30,88,77,66,43,38,26,39,26,14,29.72,29.58,41,13,48,0.00
2013-5-31,96,82,69,39,27,13,29,15,5,29.79,29.65,24,7,33,0.00
2013-6-1,98,84,60,40,23,1,37,16,3,29.77,29.61,18,6,22,0.00
2013-6-2,98,83,65,41,32,26,26,17,8,29.62,29.46,31,7,33,0.00
2013-6-3,94,80,60,45,37,13,39,24,5,29.63,29.52,19,6,23,0.00
2013-6-4,96,78,58,49,40,18,48,29,6,29.71,29.62,23,7,28,0.00
2013-6-5,100,84,68,50,42,17,43,27,5,29.77,29.61,25,7,28,0.00
2013-6-6,102,86,67,52,42,14,48,26,4,29.71,29.58,22,7,26,0.00
2013-6-7,106,89,72,52,40,14,42,23,4,29.66,29.52,20,6,24,0.00
2013-6-8,107,89,71,51,42,13,34,22,3,29.58,29.49,18,6,26,0.00
2013-6-9,99,83,66,51,23,-25,36,16,1,29.68,29.57,21,6,27,0.00
2013-6-10,85,73,56,48,25,-1,36,18,7,29.75,29.66,30,11,33,0.00
2013-6-11,99,84,68,46,36,23,32,20,7,29.80,29.67,25,9,31,0.00
2013-6-12,96,81,66,46,37,26,34,23,9,29.76,29.67,27,9,35,0.00
2013-6-13,88,78,68,41,30,18,34,19,8,29.78,29.69,42,14,42,0.00
2013-6-14,88,74,63,31,25,5,28,18,4,29.78,29.72,18,4,25,0.00
2013-6-15,93,79,63,35,26,6,30,17,4,29.74,29.66,22,8,32,0.00
2013-6-16,90,81,72,35,29,20,22,15,9,29.80,29.73,30,15,35,0.00
2013-6-17,77,74,72,35,34,33,25,23,20,29.78,29.75,24,10,32,0.00
2013-6-19,83,75,67,37,31,22,30,20,13,29.68,29.63,32,18,41,0.00
2013-6-20,85,75,64,34,28,10,26,18,6,29.74,29.63,39,14,46,0.00
2013-6-21,89,78,62,36,30,17,29,18,10,29.74,29.63,29,11,38,0.00
2013-6-22,93,81,72,33,29,21,21,15,8,29.73,29.60,27,11,33,0.00
2013-6-23,88,79,72,40,36,32,30,22,14,29.61,29.52,35,14,38,0.00
2013-6-24,82,74,65,51,45,34,52,36,27,29.71,29.56,29,12,33,0.00
2013-6-25,92,80,67,53,50,46,53,36,22,29.77,29.69,25,10,30,0.00
2013-6-26,98,86,74,58,53,42,49,34,15,29.80,29.72,24,11,30,0.00
2013-6-27,104,88,75,58,54,41,53,34,12,29.87,29.77,23,6,27,0.00
2013-6-28,107,91,79,57,52,32,45,29,8,29.82,29.66,24,7,26,0.00
2013-6-29,109,94,78,54,49,36,40,24,9,29.72,29.58,22,7,28,0.00
2013-6-30,111,96,83,52,45,25,31,19,5,29.64,29.52,23,7,28,0.00
2013-7-1,110,96,83,52,45,31,29,19,7,29.70,29.56,20,7,25,0.00
2013-7-2,106,91,72,50,46,40,38,23,11,29.78,29.63,27,7,30,0.00
2013-7-3,106,95,85,52,46,38,25,19,10,29.69,29.50,26,10,31,0.00
2013-7-4,108,95,82,55,50,41,32,22,11,29.58,29.45,23,8,26,0.00
2013-7-5,103,93,83,54,48,29,34,23,8,29.55,29.46,22,9,27,0.00
2013-7-6,103,88,72,45,37,19,32,18,5,29.59,29.50,24,8,31,0.00
2013-7-7,102,88,69,43,31,17,29,15,5,29.67,29.57,22,7,26,0.00
2013-7-8,102,91,73,34,23,12,17,9,4,29.78,29.67,22,8,27,0.00
2013-7-9,103,91,75,38,27,14,18,11,4,29.84,29.75,23,8,38,0.00
2013-7-10,102,91,80,48,36,28,29,16,9,29.79,29.67,28,9,31,0.00
2013-7-11,89,84,77,54,47,42,44,28,20,29.78,29.64,27,7,31,0.00
2013-7-12,97,83,70,43,37,20,36,21,7,29.79,29.65,21,6,29,0.00
2013-7-13,99,86,68,38,33,17,29,16,9,29.80,29.68,22,7,30,0.00
2013-7-14,100,90,80,34,31,27,17,13,8,29.77,29.63,26,12,30,0.00
2013-7-15,100,89,79,38,32,24,19,13,10,29.68,29.55,22,8,29,0.00
2013-7-16,96,81,61,34,25,8,26,14,4,29.79,29.64,22,7,27,0.00
2013-7-17,98,83,67,43,33,5,29,18,3,29.89,29.77,23,6,27,0.00
2013-7-18,102,86,67,43,34,-3,35,19,1,29.85,29.67,24,6,27,0.00
2013-7-19,105,89,75,43,36,15,30,18,4,29.75,29.57,26,7,27,0.00
2013-7-20,103,89,71,45,39,35,28,18,10,29.67,29.53,20,6,23,0.00
2013-7-21,95,86,75,57,51,41,50,31,21,29.78,29.60,16,5,21,0.00
2013-7-22,95,80,69,67,56,46,84,45,28,29.84,29.70,19,4,44,0.72
2013-7-23,96,82,70,68,60,52,86,50,26,29.87,29.72,22,7,28,0.72
2013-7-24,100,89,76,57,52,44,51,30,16,29.78,29.66,26,10,30,0.00
2013-7-25,102,90,79,51,49,43,36,25,14,29.78,29.69,25,9,29,0.00
2013-7-26,93,86,81,64,56,47,53,36,25,29.86,29.77,23,6,26,0.00
2013-7-27,95,86,77,61,57,50,54,38,24,29.85,29.65,19,6,21,0.00
2013-7-28,98,87,77,53,48,38,42,27,13,29.69,29.56,24,7,31,0.00
2013-7-29,97,83,65,47,38,10,48,25,4,29.81,29.66,24,7,32,0.00
2013-7-30,97,83,65,48,44,37,50,28,13,29.91,29.78,16,5,22,0.00
2013-7-31,97,81,62,46,36,6,46,24,3,29.91,29.75,18,6,23,0.00
2013-8-1,91,81,71,45,37,28,39,22,12,29.79,29.67,28,11,32,0.00
2013-8-2,93,81,70,38,29,18,24,16,7,29.76,29.68,22,8,28,0.00
2013-8-3,96,81,69,33,24,6,23,14,3,29.82,29.70,17,6,25,0.00
2013-8-4,98,81,60,36,26,-19,32,16,1,29.83,29.71,21,6,25,0.00
2013-8-5,98,83,66,39,27,-19,25,15,1,29.82,29.68,25,7,28,0.00
2013-8-6,99,84,71,42,34,11,31,19,4,29.80,29.69,28,9,31,0.00
2013-8-7,90,80,70,46,38,27,41,23,11,29.81,29.75,26,10,31,0.00
2013-8-8,90,78,66,44,33,-1,44,23,3,29.80,29.70,23,10,30,0.00
2013-8-9,91,77,59,42,36,6,46,25,4,29.79,29.70,21,6,23,0.00
2013-8-10,91,79,68,43,40,36,39,27,15,29.83,29.75,22,8,26,0.00
2013-8-11,93,80,67,46,38,20,39,25,8,29.83,29.70,24,6,26,0.00
2013-8-12,96,82,64,44,39,24,44,24,8,29.82,29.70,24,8,28,0.00
2013-8-13,101,84,67,44,36,15,39,21,5,29.83,29.70,19,6,24,0.00
2013-8-14,99,87,74,42,32,6,31,17,3,29.79,29.66,19,6,22,0.00
2013-8-15,101,86,67,42,36,28,29,18,9,29.80,29.69,21,6,26,0.00
2013-8-16,101,88,73,49,42,36,27,21,11,29.81,29.69,22,7,30,0.00
2013-8-17,102,88,74,46,42,28,34,22,8,29.78,29.61,22,7,25,0.00
2013-8-18,100,85,66,55,44,38,38,25,15,29.80,29.64,29,6,34,0.00
2013-8-19,95,82,69,64,57,46,79,46,27,29.86,29.69,27,5,27,0.06
2013-8-20,100,84,66,59,45,20,64,32,6,29.77,29.67,18,5,23,0.06
2013-8-21,98,85,68,44,39,31,37,22,11,29.79,29.67,19,5,25,0.00
2013-8-22,99,84,65,48,40,28,43,23,9,29.81,29.64,29,8,32,0.00
2013-8-23,97,81,62,47,36,3,45,24,3,29.73,29.58,27,7,29,0.00
2013-8-24,96,80,60,45,35,-7,46,25,2,29.73,29.60,21,7,26,0.00
2013-8-25,94,79,61,58,37,17,52,25,6,29.83,29.69,23,6,25,0.00
2013-8-26,89,76,62,60,54,47,64,47,34,29.89,29.74,17,4,23,0.00
2013-8-27,91,80,68,66,58,54,69,49,33,29.80,29.65,19,4,30,0.01
2013-8-28,96,83,67,58,54,49,61,39,22,29.78,29.67,18,6,22,0.01
2013-8-29,99,85,68,54,49,45,45,30,18,29.86,29.74,18,5,20,0.00
2013-8-30,96,85,70,63,55,51,51,37,26,29.88,29.73,24,4,27,0.00
2013-8-31,97,86,76,54,52,49,42,31,21,29.81,29.66,21,6,24,0.00
2013-9-1,98,85,74,58,53,47,51,34,20,29.76,29.64,20,7,23,0.00
2013-9-2,97,85,76,57,53,44,48,35,17,29.78,29.63,25,7,31,0.00
2013-9-3,97,85,73,57,54,46,52,36,18,29.79,29.67,22,6,28,0.00
2013-9-4,99,84,67,55,49,40,50,32,14,29.84,29.70,19,5,30,0.00
2013-9-5,100,84,68,51,48,41,47,30,14,29.80,29.68,18,6,23,0.00
2013-9-6,100,85,68,50,46,39,49,28,13,29.79,29.63,20,6,23,0.00
2013-9-7,98,84,64,46,37,26,39,22,8,29.79,29.65,18,5,26,0.00
2013-9-8,96,84,68,53,41,29,43,23,14,29.74,29.58,21,5,24,0.00
2013-9-9,96,84,70,52,46,38,45,29,16,29.71,29.54,23,7,27,0.00
2013-9-10,92,80,63,46,41,36,40,25,15,29.72,29.57,15,4,22,0.00
2013-9-11,90,77,61,46,40,37,41,28,18,29.82,29.71,21,4,24,0.00
2013-9-12,92,80,68,50,43,39,38,28,16,29.81,29.66,23,7,30,0.00
2013-9-13,95,82,67,51,46,42,45,30,17,29.71,29.55,23,6,26,0.00
2013-9-14,97,83,67,51,46,36,45,29,12,29.64,29.50,17,6,23,0.00
2013-9-15,98,84,65,50,44,29,50,28,9,29.67,29.57,19,6,25,0.00
2013-9-16,96,80,63,47,38,27,40,25,9,29.73,29.59,24,6,27,0.00
2013-9-17,88,77,66,47,40,16,44,29,7,29.66,29.53,24,10,29,0.00
2013-9-18,88,76,66,42,36,23,37,26,10,29.68,29.57,27,7,40,0.00
2013-9-19,93,77,59,40,21,12,39,15,5,29.75,29.63,19,5,24,0.00
2013-9-20,92,75,56,40,26,15,29,17,8,29.72,29.60,23,7,31,0.00
2013-9-21,79,70,62,45,41,35,47,36,21,29.68,29.58,35,11,36,0.00
2013-9-22,72,64,56,41,36,24,47,37,19,29.83,29.64,26,11,33,0.00
2013-9-23,85,69,48,40,34,26,61,33,13,29.93,29.81,13,4,17,0.00
2013-9-24,87,72,52,41,31,10,45,25,6,29.86,29.67,26,7,32,0.00
2013-9-25,72,64,58,45,38,25,58,39,27,29.68,29.51,36,16,40,0.00
2013-9-26,69,60,55,32,29,22,40,30,18,29.85,29.59,25,12,34,0.00
2013-9-27,74,61,48,32,22,13,48,25,11,30.03,29.85,19,5,27,0.00
2013-9-28,80,64,44,29,16,9,30,17,7,30.07,29.95,9,3,17,0.00
2013-9-29,89,68,47,30,22,15,29,19,7,30.02,29.87,22,7,26,0.00
2013-9-30,88,75,65,45,32,22,40,23,10,29.89,29.70,27,13,30,0.00
2013-10-1,86,72,63,50,45,41,52,39,22,29.78,29.68,26,14,32,0.00
2013-10-2,82,70,57,49,43,31,66,40,22,29.77,29.67,34,10,37,0.00
2013-10-3,78,68,61,40,25,9,42,21,7,29.85,29.66,40,14,47,0.00
2013-10-4,72,63,52,14,7,0,17,11,6,30.15,29.85,32,12,42,0.00
2013-10-5,77,61,45,14,8,0,22,13,5,30.28,30.14,22,6,25,0.00
2013-10-6,83,64,47,11,3,-15,19,10,2,30.19,29.99,12,4,14,0.00
2013-10-7,83,66,49,24,6,-4,22,10,4,30.00,29.77,22,6,26,0.00
2013-10-8,80,66,51,35,22,13,39,20,9,29.80,29.57,21,6,26,0.00
2013-10-9,62,54,45,42,35,27,78,50,27,29.70,29.49,27,9,31,0.01
2013-10-10,69,56,43,38,36,33,71,48,30,29.93,29.70,21,6,27,0.01
2013-10-11,73,58,40,38,33,26,67,42,19,30.02,29.88,18,5,23,0.00
2013-10-12,77,60,42,37,30,13,63,37,9,29.94,29.77,25,6,28,0.00
2013-10-13,70,60,46,38,34,23,57,39,17,29.98,29.79,23,8,28,0.00
2013-10-14,73,58,45,32,26,20,51,31,16,30.10,29.96,19,5,24,0.00
2013-10-15,75,59,42,28,21,14,42,25,12,30.05,29.93,21,5,25,0.00
2013-10-16,73,57,42,20,16,9,35,21,10,30.16,30.01,9,3,10,0.00
2013-10-17,76,58,40,29,18,8,34,22,11,30.06,29.90,14,3,19,0.00
2013-10-18,81,63,48,25,16,7,38,18,6,30.05,29.94,12,4,17,0.00
2013-10-19,81,62,44,15,10,0,25,14,5,30.07,29.94,9,3,11,0.00
2013-10-20,82,63,45,28,13,3,25,15,5,29.97,29.82,17,4,20,0.00
2013-10-21,83,65,46,20,13,5,28,15,5,29.97,29.86,10,4,15,0.00
2013-10-22,83,67,52,17,14,11,22,14,7,29.99,29.85,17,4,17,0.00
2013-10-23,82,67,53,19,15,10,23,15,7,29.89,29.78,15,4,23,0.00
2013-10-24,83,65,47,30,19,11,28,18,7,29.95,29.84,21,4,25,0.00
2013-10-25,82,66,50,30,23,13,38,22,8,30.05,29.94,9,4,11,0.00
2013-10-26,84,65,48,23,17,11,31,17,7,30.10,29.95,9,2,14,0.00
2013-10-27,80,64,48,39,23,11,41,23,8,29.97,29.55,36,9,40,0.00
2013-10-28,61,52,47,40,34,24,70,52,28,29.81,29.51,27,12,42,0.01
2013-10-30,64,56,44,35,28,20,59,36,23,30.07,29.98,9,3,12,0.00
2013-10-31,71,54,37,31,23,15,66,34,16,30.18,30.06,8,3,12,0.00
2013-11-1,75,57,40,24,20,14,37,25,14,30.19,30.03,9,3,10,0.00
2013-11-2,72,58,38,30,24,19,47,28,15,30.06,29.77,18,6,24,0.00
2013-11-3,71,61,53,37,32,24,46,34,22,29.78,29.67,24,10,36,0.00
2013-11-4,66,57,44,34,26,15,52,33,19,29.98,29.68,16,5,21,0.00
2013-11-5,63,50,37,24,9,0,43,20,10,30.27,29.98,16,4,23,0.00
2013-11-6,70,53,36,12,5,1,24,16,8,30.37,30.24,9,3,11,0.00
2013-11-7,71,56,42,18,14,10,30,20,12,30.25,30.04,9,3,11,0.00
2013-11-8,72,55,40,18,14,9,36,21,10,30.06,29.91,8,3,11,0.00
2013-11-9,74,54,39,17,10,2,33,19,6,30.08,29.98,11,3,13,0.00
2013-11-10,74,57,42,14,10,5,24,16,9,30.15,30.06,10,3,11,0.00
2013-11-11,78,62,46,14,10,5,25,15,6,30.16,30.05,20,5,22,0.00
2013-11-12,71,61,50,14,10,5,19,14,8,30.20,30.12,7,3,12,0.00
2013-11-13,79,62,46,24,14,7,30,17,7,30.15,29.97,15,3,16,0.00
2013-11-14,76,64,52,34,26,20,35,25,13,30.02,29.64,28,9,32,0.00
2013-11-15,69,60,49,38,34,25,60,40,20,29.63,29.50,25,8,25,0.00
2013-11-16,65,54,43,37,30,20,67,43,22,29.83,29.61,26,9,29,0.00
2013-11-17,64,50,38,34,29,23,60,44,32,30.10,29.83,9,3,12,0.00
2013-11-18,63,51,39,38,32,28,69,51,36,30.14,29.99,10,3,14,0.00
2013-11-19,64,57,51,39,37,34,58,47,35,29.97,29.83,20,7,26,0.00
2013-11-20,69,57,48,43,40,36,74,54,33,29.84,29.70,24,9,26,0.00
2013-11-21,62,50,44,47,40,32,80,67,44,29.94,29.74,32,8,35,0.33
2013-11-22,46,43,41,36,33,30,78,68,54,30.05,29.93,35,20,42,0.01
2013-11-23,48,46,43,39,36,31,83,67,55,30.14,30.03,28,5,36,0.01
2013-11-24,55,45,37,40,36,33,88,72,44,30.25,30.13,10,3,10,0.00
2013-11-25,62,46,34,40,34,30,86,65,31,30.33,30.24,8,3,11,0.00
2013-11-26,65,51,38,34,31,29,72,49,26,30.30,30.14,17,4,18,0.00
2013-11-27,62,53,44,35,33,31,64,47,32,30.14,29.92,12,5,16,0.00
2013-11-28,60,52,44,35,32,29,65,49,32,30.10,29.94,15,5,23,0.00
2013-11-29,62,50,40,32,30,29,64,47,30,30.23,30.09,16,5,18,0.00
2013-11-30,66,52,41,32,29,26,61,43,23,30.26,30.13,9,4,12,0.00
2013-12-1,66,50,38,30,25,22,64,40,19,30.33,30.20,10,3,12,0.00
2013-12-2,62,51,35,30,24,18,58,37,18,30.23,29.82,26,5,28,0.00
2013-12-3,60,52,41,42,35,21,74,53,23,29.81,29.55,35,13,41,0.00
2013-12-4,47,39,28,27,12,7,58,35,22,30.01,29.69,18,5,24,0.00
2013-12-5,44,33,22,16,10,7,62,41,23,30.16,30.00,10,2,16,0.00
2013-12-6,47,34,18,15,4,-28,60,33,3,30.22,30.08,20,5,25,0.00
2013-12-7,44,39,32,34,18,6,83,46,28,30.08,29.85,41,13,56,0.24
2013-12-8,41,33,24,15,12,8,63,44,27,30.33,30.08,11,3,17,0.00
2013-12-9,44,31,21,14,6,-5,72,39,14,30.56,30.32,11,2,13,0.00
2013-12-10,50,34,21,11,5,-1,48,31,13,30.54,30.28,10,2,11,0.00
2013-12-11,56,39,26,15,10,6,54,33,14,30.38,30.29,11,2,14,0.00
2013-12-12,56,41,30,19,15,11,52,37,17,30.33,30.18,9,3,11,0.00
2013-12-13,60,43,30,18,16,12,54,36,16,30.36,30.14,10,3,11,0.00
2013-12-14,60,45,34,23,19,15,56,38,17,30.47,30.36,11,3,13,0.00
2013-12-15,64,48,32,20,16,12,56,32,13,30.45,30.29,12,3,15,0.00
2013-12-16,68,54,42,19,16,13,38,24,12,30.32,30.20,11,4,13,0.00
2013-12-17,68,53,43,21,19,16,39,27,15,30.28,30.08,11,3,15,0.00
2013-12-18,62,51,41,25,22,18,49,32,20,30.08,29.67,10,2,12,0.00
2013-12-19,54,49,43,33,29,19,58,46,32,29.81,29.58,23,10,30,0.00
2013-12-20,54,42,32,26,18,9,71,39,18,29.96,29.79,19,4,23,0.00
2013-12-21,60,43,30,31,26,20,67,51,31,30.10,29.89,12,3,17,0.00
2013-12-22,60,45,32,30,26,23,68,48,27,30.36,30.10,9,2,10,0.00
2013-12-23,63,48,35,29,26,23,63,45,26,30.45,30.34,7,2,8,0.00
2013-12-24,64,47,34,31,26,22,69,46,24,30.36,30.22,10,3,11,0.00
2013-12-25,66,48,35,26,20,12,58,35,15,30.41,30.28,9,3,11,0.00
2013-12-26,66,48,31,13,7,3,41,22,8,30.36,30.24,10,3,12,0.00
2013-12-27,65,48,33,8,3,-4,28,17,6,30.31,30.13,10,3,13,0.00
2013-12-28,67,49,35,11,5,-4,29,18,6,30.13,29.96,17,3,21,0.00
2013-12-29,62,48,35,12,7,2,29,19,9,30.28,30.08,10,4,12,0.00
2013-12-30,60,43,30,9,4,0,33,22,9,30.35,30.24,8,3,10,0.00
2013-12-31,62,45,32,9,5,1,32,21,9,30.28,30.15,7,2,9,0.00
2014-1-1,68,48,33,17,10,5,36,23,11,30.27,30.16,10,3,11,0.00
2014-1-2,66,50,37,22,19,15,48,31,17,30.23,30.08,10,3,13,0.00